[Iaude] MPEC V34: 2023 VS [a=1.03,e=0.12,i=0.7,H=29.9]

mpec at marsden.cfa.harvard.edu mpec at marsden.cfa.harvard.edu
Sat Nov 4 13:35:59 EDT 2023


M.P.E.C. 2023-V34                              Issued 2023 November 4, 17:34 UT

     The Minor Planet Electronic Circulars contain information on unusual
         minor planets, routine data on comets and natural satellites,
         and occasional editorial announcements.  They are published
    on behalf of Division F of the International Astronomical Union by the
          Minor Planet Center, Smithsonian Astrophysical Observatory,
                          Cambridge, MA 02138, U.S.A.
			  
             Prepared using the Tamkin Foundation Computer Network

                              MPC at CFA.HARVARD.EDU
            URL https://www.minorplanetcenter.net/    ISSN 1523-6714

                                    2023 VS                                     


Observations:
     K23V00S* C2023 11 03.52088403 44 00.563+12 23 52.53         20.22GVEV034F52
     K23V00S  C2023 11 03.53191003 44 08.863+12 22 08.52         20.06GVEV034F52
     K23V00S  C2023 11 03.54290003 44 17.387+12 20 22.21         19.70GVEV034F52
     K23V00S  C2023 11 03.55384503 44 25.869+12 18 37.35         19.80GVEV034F52
     K23V00S  C2023 11 03.61963403 45 23.415+12 07 21.55               VEV034F52
     K23V00S pC2023 11 03.98519303 55 05.94 +10 56 17.1          19.5 GVEV034L01
     K23V00S hC2023 11 03.98730303 55 08.36 +10 55 53.0          19.5 GVEV034L01
     K23V00S hC2023 11 03.98945403 55 10.80 +10 55 29.0          19.9 GVEV034L01
     K23V00S hC2023 11 03.99157003 55 13.20 +10 55 03.7          19.9 GVEV034L01
     K23V00S IC2023 11 03.99376303 55 15.71 +10 54 37.8          20.0 GVEV034L01
     K23V00S KC2023 11 04.11088803 57 40.63 +10 30 05.2                VEV034204
     K23V00S KC2023 11 04.11945103 57 51.62 +10 28 11.1                VEV034204
     K23V00S KC2023 11 04.12801903 58 02.78 +10 26 16.1          19.8 GVEV034204
     K23V00S KC2023 11 04.27436704 03 31.59 +09 57 57.5          19.5 G EV034858
     K23V00S KC2023 11 04.27902104 03 37.83 +09 56 55.2          19.6 G EV034858
     K23V00S KC2023 11 04.28348404 03 43.79 +09 55 54.8          19.1 G EV034858

Observer details:
204 Schiaparelli Observatory.  Observers L. Buzzi, G. Galli.  0.84-m f/3.5
    reflector + CCD.
858 Tebbutt Observatory, Edgewood.  Observer F. B. Zoltowski.  0.51-m f/8.1
    Schmidt-Cassegrain + CCD.
F52 Pan-STARRS 2, Haleakala.  Observers J. Bulger, T. Lowe, P. Minguez, A.
    Schultz, I. Smith.  Measurers K. Chambers, T. de Boer, J. Fairlamb, H.
    Gao, M. Huber, C.-C. Lin, E. Magnier, Y. Ramanjooloo, R. Wainscoat, R.
    Weryk.  1.8-m Ritchey-Chretien + CCD.
L01 Visnjan Observatory, Tican.  Observers K. Korlevic, L. Poropat.  Measurer
    K. Korlevic.  1.0-m f/2.9 reflector + CCD.

Orbital elements:
2023 VS                                                  Earth MOID = 0.0017 AU
Epoch 2023 Sept. 13.0 TT = JDT 2460200.5                Bell                    
M 243.22027              (2000.0)            P               Q                  
n   0.94028449     Peri.  266.27131     -0.53949529     -0.84195543             
a   1.0318816      Node   216.38118     +0.77742569     -0.49469819             
e   0.1226223      Incl.    0.72209     +0.32334831     -0.21537120             
P   1.05           H   29.98          G   0.15           U   5                  
Residuals in seconds of arc
231103 F52  0.1+  0.1-    231103 L01  0.3-  0.2+    231104 204  0.3+  0.5-
231103 F52  0.2-  0.2+    231103 L01  0.1-  1.2+    231104 858  0.1-  0.2-
231103 F52  0.5+  0.4-    231103 L01  0.0   0.6+    231104 858  0.0   0.1+
231103 F52 (1.8-  1.6+)   231103 L01  0.4+  0.3+    231104 858  0.0   0.1+
231103 F52  0.5-  0.2+    231104 204  0.3+  0.7-
231103 L01  0.8-  0.2-    231104 204  0.3+  0.7-

Ephemeris:
2023 VS                  a,e,i = 1.03, 0.12, 1                   q = 0.9053
Date    TT    R. A. (2000) Decl.     Delta      r    Elong.  Phase     V
2023 10 05    02 24 24.5 +19 04 44   0.06804 1.0602   150.8    27.4    25.5
...
2023 10 20    02 38 02.4 +19 14 07   0.03518 1.0296   162.5    16.9    23.7
...
2023 10 28    02 52 42.0 +18 04 49   0.01947 1.0128   167.8    12.0    22.2
...
2023 11 03    03 34 59.8 +13 34 09   0.0082001.0001   164.3    15.6    20.4
2023 11 04    03 55 18.6 +11 06 24   0.0064000.9980   159.9    20.0    20.0
2023 11 05    04 30 02.5 +06 35 39   0.0046840.9958   151.2    28.7    19.6
...
2023 11 11    13 48 03.4 -23 47 12   0.0080060.9827    18.5   161.3    30.9
...
2023 11 19    14 40 18.1 -19 27 00   0.02309 0.9660    12.9   166.8
...
2023 12 04    14 59 08.4 -18 08 53   0.05436 0.9362    23.7   155.0    33.0

M. P. C. Staff               (C) Copyright 2023 MPC           M.P.E.C. 2023-V34




More information about the Iaude mailing list